Athens, OH

1:05 AM EDT on July 22, 2017 (GMT -0400)
Ohio University

Weather History for KUNI - May, 2014

Change the Weather History Date:

Tuesday, May 6, 2014

  Actual Average (KPKB) Record (KPKB)
Temperature  
Mean Temperature 58 °F -  
Max Temperature 73 °F 70 °F 93 °F (1959)
Min Temperature 44 °F 47 °F 33 °F (1973)
Degree Days  
Heating Degree Days 6    
Growing Degree Days 8 (Base 50)    
Moisture  
Dew Point 39 °F    
Average Humidity 47    
Maximum Humidity 83    
Minimum Humidity 30    
Precipitation  
Precipitation 0.00 in - - ()
Sea Level Pressure  
Sea Level Pressure 29.96 in    
Wind  
Wind Speed 3 mph (NE)    
Max Wind Speed 12 mph    
Max Gust Speed -    
Visibility 10 miles    
Events      
Averages and records for this station are not official NWS values.
T = Trace of Precipitation, MM = Missing Value Source: NWS Daily Summary

Daily Weather History Graph

Daily Weather History Graph

Search for Another Location

Airport or City:

Trip Planner

Search our weather history database for the weather conditions in past years. The results will help you decide how hot, cold, wet, or windy it might be!

Date:

Astronomy

May. 06, 2014 Rise Set
Actual Time 6:24 AM EDT 8:26 PM EDT
Civil Twilight 5:55 AM EDT 8:56 PM EDT
Nautical Twilight 5:19 AM EDT 9:32 PM EDT
Astronomical Twilight 4:40 AM EDT 10:11 PM EDT
Moon 12:39 PM EDT (5/6) 1:45 AM EDT (5/6)
Length of Visible Light 15h 01m
Length of Day
14h 02m
Waxing Crescent, 46% of the Moon is Illuminated
May 6
Waxing Crescent
May 6
First Quarter
May 14
Full
May 21
Last Quarter
May 28
New

Hourly Weather History & Observations

Time (EDT) Temp. Dew Point Humidity Pressure Visibility Wind Dir Wind Speed Gust Speed Precip Events Conditions
12:35 AM 45.9 °F 38.5 °F 75% 29.90 in 10.0 mi Calm Calm - N/A   Clear
12:55 AM 45.3 °F 39.2 °F 79% 29.90 in 10.0 mi Calm Calm - N/A   Clear
1:15 AM 44.6 °F 39.4 °F 82% 29.91 in 10.0 mi Calm Calm - N/A   Clear
1:35 AM 44.6 °F 39.6 °F 82% 29.90 in 10.0 mi Calm Calm - N/A   Clear
1:55 AM 44.4 °F 39.6 °F 83% 29.90 in 10.0 mi Calm Calm - N/A   Clear
2:15 AM 44.6 °F 39.2 °F 81% 29.90 in 10.0 mi Calm Calm - N/A   Scattered Clouds
2:35 AM 45.5 °F 38.3 °F 76% 29.90 in 10.0 mi Calm Calm - N/A   Scattered Clouds
2:55 AM 45.5 °F 38.3 °F 76% 29.90 in 10.0 mi Calm Calm - N/A   Scattered Clouds
3:15 AM 45.0 °F 39.4 °F 81% 29.90 in 10.0 mi Calm Calm - N/A   Mostly Cloudy
3:35 AM 46.8 °F 37.0 °F 69% 29.90 in 10.0 mi Calm Calm - N/A   Overcast
7:35 AM 48.2 °F 37.8 °F 67% 29.99 in 10.0 mi Calm Calm - N/A   Clear
7:55 AM 48.4 °F 37.9 °F 67% 29.99 in 10.0 mi Calm Calm - N/A   Clear
8:15 AM 49.6 °F 38.5 °F 65% 29.99 in 10.0 mi NE 4.6 mph - N/A   Clear
8:35 AM 50.9 °F 38.7 °F 63% 30.00 in 10.0 mi ENE 5.8 mph - N/A   Clear
8:55 AM 52.7 °F 38.8 °F 59% 30.00 in 10.0 mi NE 5.8 mph - N/A   Clear
9:15 AM 54.5 °F 39.4 °F 57% 30.00 in 10.0 mi NE 6.9 mph - N/A   Clear
9:35 AM 57.2 °F 37.9 °F 49% 30.00 in 10.0 mi ENE 6.9 mph - N/A   Clear
10:15 AM 59.4 °F 35.2 °F 40% 30.00 in 10.0 mi ENE 11.5 mph - N/A   Clear
10:35 AM 60.4 °F 36.1 °F 40% 30.00 in 10.0 mi ENE 8.1 mph - N/A   Clear
10:55 AM 61.2 °F 37.6 °F 42% 30.00 in 10.0 mi NE 6.9 mph - N/A   Clear
11:15 AM 61.9 °F 36.3 °F 39% 30.00 in 10.0 mi NNE 4.6 mph - N/A   Clear
11:35 AM 62.1 °F 34.9 °F 36% 30.00 in 10.0 mi NE 8.1 mph - N/A   Clear
11:55 AM 63.7 °F 35.8 °F 35% 29.99 in 10.0 mi NE 5.8 mph - N/A   Clear
12:15 PM 64.4 °F 37.0 °F 36% 29.99 in 10.0 mi NE 6.9 mph - N/A   Clear
12:35 PM 65.7 °F 38.1 °F 36% 29.99 in 10.0 mi NE 4.6 mph - N/A   Clear
12:55 PM 65.3 °F 36.3 °F 34% 29.99 in 10.0 mi North 3.5 mph - N/A   Clear
1:15 PM 66.4 °F 37.2 °F 34% 29.98 in 10.0 mi Calm Calm - N/A   Clear
1:35 PM 67.1 °F 37.4 °F 34% 29.97 in 4.0 mi NNE 3.5 mph - N/A   Haze
1:55 PM 68.0 °F 39.2 °F 35% 29.97 in 10.0 mi NNE 8.1 mph - N/A   Clear
2:15 PM 68.5 °F 38.5 °F 33% 29.97 in 10.0 mi NNW 4.6 mph - N/A   Clear
2:35 PM 69.6 °F 40.3 °F 34% 29.96 in 10.0 mi NE 3.5 mph - N/A   Clear
2:55 PM 70.5 °F 41.0 °F 34% 29.96 in 10.0 mi Calm Calm - N/A   Clear
3:15 PM 71.2 °F 40.5 °F 33% 29.95 in 10.0 mi Calm Calm - N/A   Clear
3:35 PM 71.8 °F 40.6 °F 32% 29.95 in 10.0 mi Calm Calm - N/A   Clear
4:15 PM 72.9 °F 40.5 °F 31% 29.94 in 10.0 mi NNE 3.5 mph - N/A   Clear
4:35 PM 73.6 °F 41.4 °F 31% 29.94 in 10.0 mi NNE 6.9 mph - N/A   Mostly Cloudy
4:55 PM 73.6 °F 40.8 °F 31% 29.94 in 10.0 mi NE 6.9 mph - N/A   Mostly Cloudy
5:15 PM 73.8 °F 41.4 °F 31% 29.93 in 10.0 mi NNE 6.9 mph - N/A   Scattered Clouds
5:35 PM 73.8 °F 41.2 °F 31% 29.93 in 10.0 mi NNE 4.6 mph - N/A   Clear
6:15 PM 73.6 °F 42.8 °F 33% 29.93 in 10.0 mi NE 6.9 mph - N/A   Clear
6:35 PM 73.8 °F 40.3 °F 30% 29.93 in 10.0 mi East 6.9 mph - N/A   Clear
6:55 PM 73.4 °F 42.4 °F 33% 29.94 in 10.0 mi ENE 4.6 mph - N/A   Clear
7:15 PM 72.3 °F 40.3 °F 31% 29.94 in 10.0 mi ENE 6.9 mph - N/A   Clear
7:35 PM 69.8 °F 41.5 °F 36% 29.94 in 10.0 mi ENE 5.8 mph - N/A   Clear
7:55 PM 68.2 °F 43.3 °F 41% 29.95 in 10.0 mi ENE 6.9 mph - N/A   Clear
8:15 PM 68.0 °F 42.3 °F 39% 29.96 in 10.0 mi NE 4.6 mph - N/A   Scattered Clouds
8:35 PM 67.3 °F 41.7 °F 39% 29.96 in 10.0 mi NE 4.6 mph - N/A   Overcast
8:55 PM 67.1 °F 41.0 °F 39% 29.95 in 10.0 mi ENE 3.5 mph - N/A   Overcast
9:15 PM 66.2 °F 41.2 °F 40% 29.96 in 10.0 mi ENE 3.5 mph - N/A   Mostly Cloudy
9:35 PM 65.7 °F 41.7 °F 42% 29.96 in 10.0 mi Calm Calm - N/A   Mostly Cloudy
9:55 PM 64.9 °F 43.2 °F 45% 29.97 in 10.0 mi Calm Calm - N/A   Overcast
10:15 PM 64.4 °F 41.9 °F 44% 29.97 in 10.0 mi ENE 3.5 mph - N/A   Overcast
10:35 PM 64.4 °F 40.6 °F 42% 29.97 in 10.0 mi ENE 4.6 mph - N/A   Mostly Cloudy
10:55 PM 63.5 °F 40.3 °F 43% 29.97 in 10.0 mi NE 4.6 mph - N/A   Mostly Cloudy
11:15 PM 63.1 °F 38.8 °F 41% 29.98 in 10.0 mi ENE 4.6 mph - N/A   Scattered Clouds
11:35 PM 62.6 °F 38.7 °F 41% 29.98 in 10.0 mi ENE 4.6 mph - N/A   Mostly Cloudy
11:55 PM 62.4 °F 37.8 °F 40% 29.97 in 10.0 mi ENE 4.6 mph - N/A   Mostly Cloudy